QPF
0.00 0.00 0.00 0.00 0.00 0.00 0.00 0.00 0.00 0.00 0.00 0.00 0.00 0.00 0.00 0.00 0.00 0.00 0.00 0.00 0.00 0.00 0.00 0.00 0.00 0.00 0.00 0.00 0.00 0.00 0.01 0.01 0.01 0.03 0.05 0.06 0.07 0.07 0.03 0.01 0.00 0.00 0.00
0.00 0.01 0.01 0.01 0.00 0.00 0.00 0.00 0.00 0.00 0.00 0.00 0.00 0.00 0.00 0.00 0.00 0.00 0.00 0.00 0.00 0.00 0.00 0.00 0.00 0.00 0.00 0.00 0.00 0.00 0.00 0.01 0.01 0.02 0.03 0.05 0.06 0.05 0.03 0.01 0.00 0.01 0.01
0.02 0.03 0.05 0.03 0.01 0.00 0.00 0.00 0.00 0.00 0.00 0.00 0.00 0.00 0.00 0.00 0.00 0.00 0.00 0.00 0.00 0.00 0.00 0.00 0.00 0.00 0.00 0.00 0.00 0.00 0.00 0.01 0.01 0.02 0.03 0.04 0.04 0.05 0.04 0.03 0.04 0.07 0.07
0.03 0.05 0.05 0.05 0.05 0.02 0.01 0.00 0.00 0.00 0.00 0.00 0.00 0.00 0.00 0.00 0.00 0.00 0.00 0.00 0.00 0.00 0.00 0.00 0.00 0.00 0.00 0.00 0.00 0.00 0.00 0.01 0.01 0.01 0.02 0.03 0.03 0.04 0.06 0.08 0.11 0.14 0.13
0.06 0.06 0.08 0.10 0.12 0.08 0.04 0.01 0.00 0.00 0.00 0.00 0.00 0.00 0.00 0.00 0.00 0.00 0.00 0.00 0.00 0.00 0.00 0.00 0.00 0.00 0.00 0.00 0.00 0.00 0.00 0.01 0.01 0.01 0.02 0.02 0.03 0.04 0.06 0.09 0.12 0.14 0.13
0.12 0.11 0.15 0.18 0.17 0.12 0.06 0.03 0.01 0.00 0.00 0.00 0.00 0.00 0.00 0.00 0.00 0.00 0.00 0.00 0.00 0.00 0.00 0.00 0.00 0.00 0.00 0.00 0.01 0.01 0.01 0.01 0.01 0.02 0.02 0.02 0.03 0.03 0.03 0.05 0.07 0.08 0.07
0.25 0.21 0.21 0.23 0.21 0.16 0.12 0.09 0.04 0.01 0.01 0.00 0.00 0.00 0.00 0.00 0.00 0.00 0.00 0.00 0.00 0.00 0.00 0.00 0.00 0.00 0.00 0.00 0.01 0.01 0.01 0.02 0.02 0.02 0.03 0.03 0.02 0.02 0.02 0.03 0.03 0.03 0.03
0.38 0.34 0.29 0.30 0.28 0.25 0.20 0.15 0.09 0.04 0.02 0.02 0.02 0.02 0.01 0.00 0.00 0.00 0.00 0.00 0.00 0.00 0.00 0.00 0.00 0.00 0.00 0.00 0.00 0.01 0.02 0.02 0.02 0.02 0.02 0.02 0.02 0.01 0.01 0.00 0.01 0.01 0.01
0.53 0.48 0.41 0.39 0.36 0.30 0.25 0.22 0.18 0.13 0.09 0.08 0.06 0.04 0.02 0.01 0.01 0.00 0.00 0.00 0.00 0.00 0.00 0.00 0.00 0.00 0.00 0.00 0.00 0.01 0.01 0.02 0.02 0.01 0.01 0.01 0.01 0.00 0.00 0.00 0.00 0.00 0.01
0.56 0.56 0.51 0.47 0.44 0.40 0.33 0.29 0.27 0.23 0.20 0.16 0.13 0.10 0.07 0.03 0.01 0.00 0.00 0.00 0.00 0.00 0.00 0.00 0.00 0.00 0.00 0.00 0.00 0.00 0.01 0.01 0.02 0.03 0.01 0.01 0.00 0.00 0.00 0.00 0.01 0.01 0.01
0.38 0.44 0.47 0.46 0.44 0.45 0.44 0.40 0.35 0.31 0.28 0.24 0.21 0.18 0.14 0.10 0.06 0.03 0.01 0.00 0.00 0.00 0.00 0.00 0.00 0.00 0.00 0.00 0.00 0.00 0.01 0.01 0.02 0.04 0.03 0.01 0.01 0.00 0.00 0.01 0.01 0.01 0.01
0.17 0.26 0.34 0.36 0.38 0.41 0.43 0.42 0.40 0.39 0.37 0.33 0.29 0.24 0.19 0.15 0.12 0.09 0.05 0.02 0.01 0.00 0.00 0.00 0.00 0.00 0.00 0.00 0.00 0.00 0.01 0.01 0.02 0.03 0.03 0.01 0.01 0.00 0.01 0.01 0.01 0.01 0.01
0.08 0.15 0.22 0.26 0.30 0.32 0.32 0.32 0.31 0.32 0.32 0.30 0.28 0.25 0.21 0.16 0.12 0.11 0.08 0.05 0.02 0.01 0.00 0.00 0.00 0.00 0.00 0.00 0.00 0.00 0.01 0.02 0.02 0.03 0.02 0.01 0.01 0.01 0.02 0.02 0.02 0.01 0.01
0.04 0.07 0.11 0.15 0.19 0.23 0.24 0.23 0.23 0.21 0.20 0.18 0.18 0.17 0.16 0.14 0.13 0.11 0.08 0.06 0.03 0.01 0.00 0.00 0.00 0.00 0.00 0.00 0.00 0.00 0.00 0.02 0.02 0.02 0.02 0.01 0.01 0.01 0.02 0.03 0.03 0.02 0.01
0.04 0.05 0.07 0.10 0.15 0.18 0.18 0.17 0.16 0.16 0.16 0.14 0.13 0.13 0.12 0.11 0.11 0.11 0.09 0.05 0.03 0.02 0.01 0.00 0.00 0.00 0.00 0.00 0.00 0.00 0.00 0.01 0.02 0.02 0.01 0.01 0.00 0.00 0.01 0.01 0.02 0.01 0.01
0.03 0.04 0.05 0.07 0.11 0.15 0.19 0.20 0.18 0.17 0.15 0.13 0.11 0.11 0.10 0.09 0.09 0.08 0.08 0.06 0.03 0.02 0.01 0.00 0.00 0.00 0.00 0.00 0.00 0.00 0.00 0.01 0.01 0.01 0.01 0.01 0.00 0.00 0.00 0.01 0.01 0.01 0.01
0.05 0.05 0.06 0.07 0.09 0.11 0.13 0.14 0.15 0.14 0.11 0.09 0.09 0.08 0.07 0.06 0.06 0.06 0.06 0.05 0.03 0.02 0.01 0.00 0.00 0.00 0.00 0.00 0.00 0.00 0.00 0.00 0.01 0.01 0.01 0.01 0.00 0.00 0.00 0.00 0.00 0.00 0.00
0.03 0.05 0.07 0.08 0.10 0.11 0.12 0.11 0.11 0.10 0.08 0.08 0.07 0.07 0.08 0.07 0.07 0.06 0.06 0.04 0.03 0.02 0.01 0.00 0.00 0.00 0.00 0.00 0.00 0.00 0.01 0.01 0.01 0.02 0.01 0.01 0.01 0.01 0.01 0.01 0.01 0.00 0.00
0.02 0.02 0.03 0.03 0.04 0.06 0.07 0.08 0.07 0.07 0.07 0.06 0.06 0.06 0.07 0.08 0.08 0.07 0.05 0.04 0.03 0.02 0.01 0.00 0.00 0.00 0.00 0.00 0.00 0.00 0.01 0.02 0.02 0.02 0.02 0.03 0.04 0.03 0.03 0.03 0.03 0.02 0.02
0.02 0.02 0.03 0.03 0.04 0.04 0.05 0.05 0.05 0.05 0.05 0.06 0.06 0.07 0.07 0.07 0.07 0.06 0.05 0.04 0.02 0.01 0.01 0.00 0.00 0.00 0.00 0.00 0.00 0.01 0.02 0.03 0.04 0.04 0.05 0.06 0.06 0.06 0.06 0.06 0.06 0.05 0.04
0.01 0.01 0.01 0.01 0.02 0.02 0.02 0.03 0.04 0.04 0.04 0.05 0.05 0.06 0.06 0.05 0.04 0.04 0.03 0.02 0.02 0.01 0.01 0.00 0.00 0.00 0.00 0.00 0.01 0.01 0.02 0.03 0.03 0.04 0.05 0.06 0.06 0.07 0.07 0.07 0.07 0.07 0.07
0.00 0.00 0.00 0.00 0.01 0.01 0.01 0.01 0.02 0.02 0.02 0.03 0.04 0.04 0.05 0.05 0.04 0.03 0.02 0.02 0.02 0.01 0.01 0.00 0.00 0.00 0.00 0.00 0.00 0.01 0.01 0.02 0.02 0.03 0.03 0.04 0.06 0.07 0.08 0.08 0.08 0.08 0.06
0.00 0.00 0.00 0.00 0.00 0.00 0.00 0.00 0.00 0.00 0.01 0.02 0.03 0.04 0.06 0.07 0.06 0.05 0.03 0.02 0.01 0.01 0.01 0.00 0.00 0.00 0.00 0.01 0.01 0.01 0.01 0.02 0.03 0.02 0.03 0.03 0.03 0.04 0.04 0.04 0.04 0.04 0.05
0.00 0.00 0.00 0.00 0.00 0.00 0.00 0.00 0.00 0.00 0.00 0.00 0.01 0.03 0.06 0.08 0.08 0.06 0.05 0.03 0.02 0.02 0.01 0.01 0.01 0.00 0.00 0.00 0.00 0.01 0.01 0.01 0.02 0.02 0.02 0.02 0.02 0.02 0.02 0.03 0.03 0.03 0.03
0.00 0.00 0.00 0.00 0.00 0.00 0.00 0.00 0.00 0.00 0.00 0.00 0.00 0.01 0.04 0.05 0.07 0.07 0.06 0.06 0.04 0.03 0.02 0.02 0.02 0.01 0.01 0.01 0.00 0.00 0.00 0.00 0.00 0.01 0.01 0.01 0.01 0.01 0.01 0.01 0.01 0.01 0.01
0.00 0.00 0.00 0.00 0.00 0.00 0.00 0.00 0.00 0.00 0.00 0.00 0.00 0.01 0.02 0.05 0.05 0.06 0.05 0.04 0.04 0.04 0.02 0.01 0.01 0.01 0.01 0.01 0.01 0.01 0.00 0.00 0.00 0.00 0.00 0.00 0.00 0.00 0.00 0.00 0.00 0.00 0.00
MSLP
1015.76 1015.89 1015.98 1016.07 1016.17 1016.31 1016.48 1016.67 1016.88 1017.07 1017.23 1017.35 1017.43 1017.48 1017.53 1017.58 1017.65 1017.74 1017.84 1017.93 1018.01 1018.08 1018.13 1018.17 1018.21 1018.24 1018.28 1018.32 1018.35 1018.38 1018.38 1018.38 1018.39 1018.43 1018.52 1018.66 1018.86 1019.11 1019.37 1019.62 1019.80 1019.91 1019.94
1015.44 1015.59 1015.71 1015.83 1015.96 1016.12 1016.31 1016.52 1016.74 1016.94 1017.11 1017.24 1017.35 1017.43 1017.51 1017.58 1017.66 1017.75 1017.84 1017.93 1018.01 1018.08 1018.13 1018.18 1018.24 1018.29 1018.34 1018.39 1018.42 1018.43 1018.43 1018.41 1018.41 1018.45 1018.55 1018.71 1018.93 1019.19 1019.45 1019.68 1019.85 1019.94 1019.95
1015.02 1015.21 1015.38 1015.56 1015.75 1015.96 1016.19 1016.43 1016.67 1016.88 1017.06 1017.21 1017.34 1017.44 1017.53 1017.61 1017.70 1017.78 1017.85 1017.91 1017.97 1018.02 1018.06 1018.12 1018.18 1018.26 1018.33 1018.39 1018.44 1018.45 1018.45 1018.43 1018.43 1018.47 1018.56 1018.72 1018.95 1019.20 1019.45 1019.67 1019.82 1019.89 1019.89
1014.49 1014.74 1014.99 1015.25 1015.53 1015.82 1016.11 1016.39 1016.65 1016.88 1017.07 1017.23 1017.37 1017.48 1017.58 1017.67 1017.75 1017.80 1017.85 1017.87 1017.89 1017.91 1017.93 1017.98 1018.06 1018.15 1018.25 1018.34 1018.41 1018.44 1018.45 1018.45 1018.45 1018.48 1018.58 1018.73 1018.93 1019.17 1019.40 1019.59 1019.73 1019.79 1019.79
1013.88 1014.19 1014.53 1014.89 1015.26 1015.64 1016.00 1016.34 1016.63 1016.88 1017.09 1017.26 1017.40 1017.52 1017.63 1017.72 1017.79 1017.82 1017.83 1017.82 1017.79 1017.77 1017.77 1017.81 1017.88 1017.99 1018.12 1018.24 1018.34 1018.41 1018.45 1018.46 1018.48 1018.52 1018.60 1018.73 1018.91 1019.11 1019.31 1019.48 1019.59 1019.65 1019.66
1013.21 1013.57 1013.98 1014.44 1014.91 1015.38 1015.82 1016.21 1016.55 1016.82 1017.04 1017.23 1017.39 1017.53 1017.65 1017.74 1017.81 1017.83 1017.81 1017.77 1017.70 1017.64 1017.61 1017.63 1017.70 1017.82 1017.98 1018.13 1018.28 1018.38 1018.45 1018.49 1018.52 1018.56 1018.63 1018.74 1018.89 1019.06 1019.22 1019.36 1019.45 1019.51 1019.53
1012.51 1012.90 1013.38 1013.91 1014.47 1015.02 1015.53 1015.97 1016.34 1016.65 1016.89 1017.10 1017.29 1017.45 1017.60 1017.72 1017.80 1017.83 1017.80 1017.73 1017.63 1017.54 1017.49 1017.49 1017.56 1017.68 1017.85 1018.04 1018.21 1018.36 1018.46 1018.53 1018.58 1018.62 1018.69 1018.78 1018.90 1019.03 1019.16 1019.27 1019.35 1019.39 1019.42
1011.86 1012.24 1012.75 1013.33 1013.95 1014.55 1015.11 1015.60 1016.00 1016.33 1016.61 1016.86 1017.08 1017.30 1017.49 1017.65 1017.76 1017.81 1017.79 1017.72 1017.61 1017.50 1017.42 1017.41 1017.46 1017.59 1017.76 1017.96 1018.16 1018.33 1018.46 1018.55 1018.62 1018.68 1018.74 1018.83 1018.93 1019.04 1019.14 1019.23 1019.29 1019.33 1019.36
1011.31 1011.67 1012.17 1012.76 1013.40 1014.02 1014.60 1015.11 1015.54 1015.90 1016.22 1016.51 1016.78 1017.05 1017.31 1017.53 1017.69 1017.77 1017.78 1017.72 1017.61 1017.50 1017.41 1017.38 1017.41 1017.53 1017.69 1017.89 1018.09 1018.27 1018.41 1018.53 1018.61 1018.69 1018.77 1018.86 1018.97 1019.07 1019.16 1019.24 1019.29 1019.33 1019.36
1010.94 1011.25 1011.71 1012.28 1012.89 1013.51 1014.08 1014.58 1015.02 1015.40 1015.75 1016.09 1016.42 1016.75 1017.07 1017.35 1017.57 1017.71 1017.75 1017.72 1017.63 1017.52 1017.42 1017.37 1017.39 1017.47 1017.61 1017.79 1017.97 1018.14 1018.29 1018.41 1018.52 1018.62 1018.73 1018.84 1018.97 1019.09 1019.20 1019.28 1019.34 1019.38 1019.41
1010.80 1011.04 1011.45 1011.95 1012.51 1013.07 1013.61 1014.09 1014.52 1014.90 1015.28 1015.65 1016.03 1016.42 1016.80 1017.13 1017.41 1017.59 1017.68 1017.67 1017.60 1017.51 1017.41 1017.35 1017.35 1017.40 1017.50 1017.64 1017.78 1017.93 1018.06 1018.19 1018.31 1018.44 1018.59 1018.74 1018.91 1019.07 1019.20 1019.31 1019.39 1019.44 1019.48
1010.89 1011.08 1011.40 1011.83 1012.30 1012.79 1013.26 1013.69 1014.09 1014.47 1014.85 1015.24 1015.65 1016.08 1016.49 1016.87 1017.19 1017.41 1017.53 1017.56 1017.52 1017.44 1017.35 1017.29 1017.26 1017.28 1017.34 1017.43 1017.53 1017.63 1017.74 1017.86 1018.00 1018.15 1018.34 1018.54 1018.76 1018.97 1019.15 1019.29 1019.40 1019.47 1019.52
1011.21 1011.33 1011.58 1011.91 1012.28 1012.68 1013.06 1013.43 1013.78 1014.13 1014.49 1014.89 1015.31 1015.75 1016.18 1016.57 1016.90 1017.15 1017.29 1017.35 1017.35 1017.29 1017.23 1017.17 1017.13 1017.12 1017.14 1017.17 1017.22 1017.28 1017.36 1017.46 1017.59 1017.77 1018.00 1018.25 1018.53 1018.79 1019.02 1019.21 1019.34 1019.43 1019.49
1011.68 1011.76 1011.92 1012.16 1012.43 1012.72 1013.01 1013.30 1013.59 1013.90 1014.23 1014.60 1015.01 1015.43 1015.85 1016.23 1016.56 1016.81 1016.98 1017.06 1017.09 1017.08 1017.04 1017.00 1016.97 1016.94 1016.93 1016.92 1016.91 1016.92 1016.96 1017.04 1017.17 1017.36 1017.61 1017.91 1018.23 1018.54 1018.81 1019.04 1019.20 1019.30 1019.37
1012.26 1012.29 1012.38 1012.53 1012.70 1012.89 1013.08 1013.29 1013.51 1013.76 1014.05 1014.38 1014.74 1015.12 1015.51 1015.86 1016.17 1016.42 1016.60 1016.71 1016.78 1016.81 1016.82 1016.81 1016.80 1016.78 1016.74 1016.70 1016.66 1016.62 1016.62 1016.67 1016.79 1016.98 1017.25 1017.57 1017.92 1018.26 1018.56 1018.80 1018.97 1019.09 1019.16
1012.87 1012.86 1012.88 1012.94 1013.02 1013.12 1013.22 1013.35 1013.50 1013.69 1013.92 1014.20 1014.51 1014.84 1015.17 1015.48 1015.76 1016.00 1016.18 1016.33 1016.44 1016.53 1016.59 1016.64 1016.66 1016.66 1016.63 1016.57 1016.49 1016.43 1016.39 1016.41 1016.51 1016.70 1016.96 1017.29 1017.65 1018.00 1018.31 1018.54 1018.71 1018.81 1018.87
1013.46 1013.41 1013.38 1013.36 1013.36 1013.37 1013.40 1013.45 1013.54 1013.66 1013.83 1014.05 1014.30 1014.57 1014.84 1015.11 1015.36 1015.58 1015.77 1015.95 1016.11 1016.26 1016.40 1016.50 1016.58 1016.61 1016.59 1016.53 1016.45 1016.36 1016.30 1016.29 1016.37 1016.55 1016.81 1017.13 1017.47 1017.81 1018.09 1018.31 1018.45 1018.52 1018.54
1014.04 1013.94 1013.85 1013.77 1013.70 1013.64 1013.60 1013.59 1013.61 1013.68 1013.79 1013.94 1014.12 1014.33 1014.55 1014.77 1014.99 1015.20 1015.41 1015.62 1015.83 1016.04 1016.24 1016.41 1016.54 1016.61 1016.62 1016.57 1016.49 1016.40 1016.33 1016.31 1016.38 1016.54 1016.78 1017.09 1017.41 1017.71 1017.97 1018.14 1018.23 1018.26 1018.24
1014.60 1014.46 1014.32 1014.18 1014.05 1013.94 1013.84 1013.77 1013.73 1013.74 1013.79 1013.88 1014.00 1014.14 1014.31 1014.49 1014.68 1014.88 1015.10 1015.34 1015.60 1015.86 1016.11 1016.34 1016.52 1016.63 1016.67 1016.65 1016.58 1016.50 1016.43 1016.42 1016.49 1016.64 1016.87 1017.16 1017.45 1017.73 1017.94 1018.07 1018.11 1018.08 1018.01
1015.18 1015.00 1014.82 1014.64 1014.46 1014.29 1014.14 1014.02 1013.92 1013.87 1013.86 1013.88 1013.94 1014.03 1014.15 1014.29 1014.45 1014.65 1014.87 1015.13 1015.42 1015.71 1016.01 1016.28 1016.49 1016.64 1016.71 1016.72 1016.67 1016.61 1016.57 1016.57 1016.65 1016.81 1017.04 1017.31 1017.59 1017.83 1018.01 1018.10 1018.09 1018.02 1017.90
1015.81 1015.60 1015.38 1015.16 1014.94 1014.73 1014.53 1014.35 1014.20 1014.09 1014.01 1013.97 1013.97 1014.01 1014.08 1014.18 1014.32 1014.50 1014.72 1014.99 1015.28 1015.60 1015.91 1016.20 1016.44 1016.60 1016.70 1016.73 1016.72 1016.69 1016.68 1016.71 1016.81 1016.99 1017.23 1017.50 1017.78 1018.01 1018.17 1018.23 1018.20 1018.09 1017.93
1016.50 1016.26 1016.02 1015.77 1015.52 1015.27 1015.02 1014.78 1014.57 1014.39 1014.25 1014.15 1014.09 1014.07 1014.10 1014.16 1014.28 1014.44 1014.65 1014.91 1015.20 1015.51 1015.82 1016.11 1016.35 1016.53 1016.64 1016.70 1016.72 1016.72 1016.74 1016.81 1016.95 1017.16 1017.42 1017.71 1017.99 1018.23 1018.39 1018.45 1018.41 1018.29 1018.11
1017.22 1016.98 1016.73 1016.46 1016.17 1015.88 1015.58 1015.29 1015.01 1014.77 1014.56 1014.40 1014.28 1014.22 1014.20 1014.24 1014.33 1014.47 1014.66 1014.90 1015.17 1015.46 1015.76 1016.03 1016.26 1016.44 1016.56 1016.64 1016.68 1016.73 1016.79 1016.90 1017.07 1017.31 1017.59 1017.90 1018.21 1018.46 1018.64 1018.72 1018.70 1018.60 1018.43
1017.96 1017.72 1017.45 1017.17 1016.85 1016.52 1016.17 1015.82 1015.48 1015.18 1014.91 1014.70 1014.54 1014.43 1014.39 1014.40 1014.46 1014.58 1014.75 1014.97 1015.21 1015.47 1015.74 1015.99 1016.21 1016.38 1016.51 1016.61 1016.68 1016.76 1016.86 1017.00 1017.20 1017.46 1017.77 1018.10 1018.42 1018.70 1018.92 1019.04 1019.06 1019.00 1018.87
1018.65 1018.41 1018.15 1017.84 1017.50 1017.12 1016.73 1016.33 1015.94 1015.58 1015.27 1015.02 1014.82 1014.69 1014.63 1014.62 1014.67 1014.77 1014.92 1015.11 1015.33 1015.56 1015.80 1016.03 1016.24 1016.41 1016.56 1016.67 1016.77 1016.88 1017.01 1017.17 1017.39 1017.67 1017.98 1018.32 1018.65 1018.96 1019.21 1019.37 1019.45 1019.45 1019.38
1019.25 1019.03 1018.76 1018.43 1018.06 1017.65 1017.22 1016.78 1016.35 1015.96 1015.62 1015.34 1015.13 1014.99 1014.91 1014.90 1014.94 1015.03 1015.17 1015.34 1015.53 1015.75 1015.97 1016.19 1016.39 1016.58 1016.73 1016.87 1017.00 1017.13 1017.28 1017.46 1017.68 1017.95 1018.25 1018.58 1018.92 1019.23 1019.51 1019.72 1019.86 1019.93 1019.93
Thickness
5766 5765 5764 5763 5762 5761 5760 5759 5758 5757 5757 5756 5756 5756 5757 5757 5756 5756 5756 5755 5755 5754 5754 5754 5753 5752 5751 5750 5750 5749 5749 5748 5747 5747 5746 5746 5745 5744 5743 5742 5741 5740 5740
5765 5764 5762 5761 5760 5759 5757 5756 5755 5754 5754 5754 5754 5754 5754 5754 5754 5753 5752 5752 5752 5752 5752 5751 5751 5750 5749 5748 5747 5746 5746 5745 5744 5744 5743 5742 5742 5741 5740 5739 5738 5738 5737
5763 5762 5760 5759 5759 5757 5755 5753 5752 5751 5751 5751 5751 5752 5752 5751 5751 5750 5749 5749 5749 5749 5749 5748 5748 5747 5746 5745 5744 5743 5743 5742 5741 5740 5739 5739 5738 5738 5737 5736 5735 5735 5734
5761 5759 5758 5757 5757 5754 5752 5750 5748 5747 5747 5747 5747 5747 5748 5747 5747 5746 5745 5745 5745 5745 5745 5745 5744 5744 5743 5742 5741 5740 5739 5738 5737 5736 5736 5735 5734 5734 5733 5732 5732 5731 5731
5759 5757 5756 5755 5754 5751 5749 5747 5745 5743 5742 5742 5742 5742 5742 5742 5742 5742 5741 5741 5742 5742 5742 5741 5741 5740 5740 5739 5738 5737 5736 5734 5733 5732 5731 5730 5730 5729 5729 5728 5728 5727 5727
5758 5756 5753 5752 5750 5747 5745 5744 5741 5740 5739 5738 5738 5736 5736 5736 5737 5737 5737 5737 5738 5738 5738 5737 5737 5736 5735 5735 5734 5733 5732 5730 5729 5728 5727 5726 5725 5724 5724 5724 5723 5723 5723
5756 5754 5751 5748 5745 5742 5741 5740 5737 5734 5733 5733 5729 5726 5728 5730 5731 5732 5733 5733 5734 5734 5734 5733 5733 5732 5731 5730 5729 5728 5727 5726 5725 5723 5722 5721 5720 5719 5718 5718 5718 5718 5718
5755 5752 5748 5745 5742 5738 5734 5732 5730 5728 5727 5727 5724 5718 5716 5719 5724 5728 5728 5729 5729 5729 5729 5729 5729 5728 5726 5725 5725 5724 5723 5721 5720 5718 5717 5715 5714 5713 5713 5712 5712 5712 5712
5754 5751 5749 5745 5741 5736 5731 5728 5726 5723 5720 5720 5721 5717 5710 5708 5714 5719 5722 5724 5724 5724 5725 5725 5724 5724 5723 5721 5720 5720 5718 5717 5715 5714 5712 5711 5709 5708 5707 5707 5706 5706 5706
5748 5747 5746 5743 5739 5735 5731 5727 5724 5721 5717 5714 5714 5715 5714 5713 5708 5708 5713 5717 5719 5719 5720 5720 5720 5720 5719 5718 5717 5716 5714 5713 5711 5709 5708 5706 5705 5703 5703 5702 5701 5701 5700
5739 5740 5740 5738 5736 5733 5729 5725 5721 5717 5715 5712 5709 5708 5706 5706 5706 5703 5703 5707 5711 5713 5715 5716 5716 5716 5715 5714 5713 5712 5711 5709 5707 5705 5703 5702 5700 5699 5698 5697 5696 5695 5695
5730 5731 5731 5731 5730 5728 5725 5722 5719 5715 5711 5708 5706 5705 5703 5701 5700 5699 5697 5699 5701 5705 5709 5711 5711 5712 5712 5711 5711 5710 5708 5706 5703 5701 5699 5698 5696 5694 5693 5692 5691 5690 5689
5719 5721 5722 5723 5722 5721 5719 5718 5715 5711 5708 5705 5703 5701 5700 5700 5700 5698 5695 5693 5694 5697 5700 5704 5706 5707 5708 5708 5708 5707 5705 5703 5700 5698 5696 5693 5691 5689 5688 5687 5686 5686 5685
5710 5712 5713 5713 5713 5713 5712 5711 5708 5706 5704 5701 5699 5698 5697 5696 5695 5694 5692 5689 5686 5687 5690 5695 5699 5701 5703 5703 5704 5703 5701 5700 5698 5695 5692 5690 5688 5686 5684 5682 5682 5681 5680
5699 5701 5703 5703 5704 5704 5703 5702 5700 5699 5697 5695 5694 5693 5691 5691 5690 5690 5689 5687 5682 5678 5680 5686 5690 5694 5697 5698 5699 5698 5697 5696 5694 5692 5689 5687 5684 5682 5680 5679 5678 5677 5676
5687 5689 5691 5692 5693 5693 5693 5692 5690 5690 5688 5687 5686 5685 5685 5684 5684 5683 5683 5681 5680 5677 5674 5678 5682 5686 5689 5691 5693 5693 5693 5692 5690 5689 5686 5684 5681 5679 5677 5675 5674 5673 5672
5675 5677 5679 5680 5680 5681 5681 5680 5679 5679 5678 5677 5677 5677 5676 5676 5676 5676 5676 5674 5673 5671 5669 5671 5675 5678 5681 5683 5686 5687 5687 5687 5686 5685 5683 5681 5678 5676 5674 5672 5671 5670 5669
5663 5665 5667 5668 5669 5669 5669 5668 5668 5668 5668 5667 5668 5668 5668 5669 5668 5668 5667 5666 5666 5665 5664 5663 5666 5669 5673 5675 5678 5680 5681 5681 5681 5681 5680 5678 5675 5673 5671 5669 5668 5667 5666
5652 5655 5656 5657 5657 5658 5658 5658 5658 5658 5658 5659 5660 5660 5660 5660 5660 5660 5660 5660 5660 5659 5659 5658 5659 5661 5664 5667 5670 5673 5674 5675 5676 5676 5675 5673 5672 5670 5668 5666 5665 5664 5662
5643 5644 5645 5647 5648 5648 5649 5650 5650 5650 5651 5652 5653 5653 5654 5654 5654 5654 5654 5654 5653 5653 5652 5652 5653 5655 5657 5660 5663 5664 5665 5667 5668 5669 5669 5668 5666 5665 5663 5662 5661 5660 5659
5634 5635 5637 5638 5640 5641 5642 5642 5642 5643 5644 5645 5646 5647 5649 5650 5650 5649 5649 5648 5648 5647 5647 5647 5648 5650 5652 5654 5657 5658 5659 5660 5660 5662 5661 5660 5659 5658 5656 5655 5655 5654 5653
5626 5627 5627 5628 5630 5631 5633 5635 5635 5635 5636 5637 5639 5640 5643 5645 5646 5646 5646 5645 5645 5644 5643 5643 5644 5645 5647 5649 5651 5653 5653 5654 5653 5654 5654 5651 5650 5649 5647 5647 5646 5646 5646
5620 5619 5618 5619 5620 5622 5624 5626 5627 5626 5627 5628 5630 5632 5636 5638 5639 5640 5640 5641 5641 5642 5642 5641 5641 5642 5643 5645 5647 5648 5648 5649 5647 5647 5647 5643 5642 5640 5639 5638 5638 5638 5638
5614 5612 5611 5610 5611 5613 5615 5616 5617 5616 5617 5618 5620 5623 5626 5629 5631 5633 5634 5633 5634 5635 5637 5638 5638 5639 5640 5642 5643 5644 5643 5642 5641 5640 5641 5637 5634 5632 5632 5631 5630 5630 5630
5609 5607 5605 5603 5603 5603 5605 5606 5607 5606 5607 5608 5611 5614 5618 5621 5625 5626 5627 5627 5627 5628 5631 5632 5633 5634 5635 5636 5637 5638 5637 5636 5633 5633 5634 5632 5628 5626 5625 5623 5622 5622 5621
5605 5603 5600 5598 5596 5596 5597 5598 5599 5598 5598 5600 5602 5605 5609 5614 5618 5620 5622 5622 5622 5623 5624 5625 5626 5628 5629 5630 5632 5633 5633 5631 5629 5627 5626 5626 5623 5622 5618 5615 5614 5613 5612